Location: *
(50.2903°S, 172.5375°W)
Time: 18:28:34
(UTC+00:00)

Meteor 1-24 Rocket - Pass Details

Date: 17 November 2019
Orbit: 789 x 928 km, 81.3° (Epoch: 14 December)

Event Time Altitude Azimuth Distance (km) Brightness Sun altitude
Rises 12:29:23 0° 195° (SSW) 3,445 7.8 -18.8°
Reaches altitude 10° 12:31:48 10° 198° (SSW) 2,524 6.9 -18.7°
Maximum altitude 12:37:28 62° 277° (W) 995 3.9 -18.4°
Enters shadow 12:40:17 31° 346° (NNW) 1,534 4.5 -18.2°
